Weather History for Sydney, NW

Change the Weather History Date:

Friday, March 15, 2013

  Actual Average Record
Temperature  
Mean Temperature 70 °F -  
Max Temperature 73 °F 76 °F 84 °F (2005)
Min Temperature 67 °F 60 °F 60 °F (2002)
Cooling Degree Days 5    
Growing Degree Days 20 (Base 50)    
Moisture  
Dew Point 64 °F    
Average Humidity 79    
Maximum Humidity 94    
Minimum Humidity 65    
Precipitation  
Precipitation 0.00 in 0.18 in - ()
Sea Level Pressure  
Sea Level Pressure 29.99 in    
Wind  
Wind Speed 17 mph ()    
Max Wind Speed 23 mph    
Max Gust Speed 31 mph    
Visibility 6.8 miles    
Events Rain    
Averages and records for this station are not official NWS values.
T = Trace of Precipitation, MM = Missing Value Source: Averaged Metar Reports

Daily Weather History Graph

Daily Weather History Graph

Search for Another Location

Airport:

Trip Planner

Search our weather history database for the weather conditions in past years. The results will help you decide how hot, cold, wet, or windy it might be!

Date:

Astronomy

Mar. 15, 2013 Rise Set
Actual Time 6:54 AM AEDT 7:13 PM AEDT
Civil Twilight 6:29 AM AEDT 7:38 PM AEDT
Nautical Twilight 6:00 AM AEDT 8:07 PM AEDT
Astronomical Twilight 5:30 AM AEDT 8:37 PM AEDT
Moon 9:59 AM AEDT (3/15) 9:00 PM AEDT (3/15)
Length of Visible Light 13h 09m
Length of Day
12h 19m
Waxing Crescent, 11% of the Moon is Illuminated
Mar 15
Waxing Crescent
Mar 20
First Quarter
Mar 27
Full
Apr 3
Last Quarter
Apr 10
New

Hourly Weather History & Observations

Time (AEDT) Temp. Dew Point Humidity Pressure Visibility Wind Dir Wind Speed Gust Speed Precip Events Conditions
12:00 AM 69 °F 66 °F 88% 29.97 in 12 mi South 19.6 mph - - Rain Light Rain Showers
12:00 AM 68.0 °F 66.2 °F 94% 29.95 in 6.2 mi South 19.6 mph - N/A Rain Light Rain Showers
12:30 AM 68.0 °F 66.2 °F 94% 29.95 in 6.2 mi South 19.6 mph - N/A Rain Light Rain Showers
1:00 AM 68.0 °F 66.2 °F 94% 29.95 in 4.3 mi SSW 19.6 mph - N/A Rain Rain Showers
1:30 AM 68.0 °F 66.2 °F 94% 29.95 in 5.6 mi South 19.6 mph - N/A Rain Light Rain Showers
2:00 AM 68 °F 65 °F 87% 29.97 in - SSW 19.6 mph - -  
2:00 AM 68.0 °F 64.4 °F 88% 29.95 in 6.2 mi SSW 19.6 mph - N/A Rain Light Rain Showers
2:30 AM 68.0 °F 64.4 °F 88% 29.95 in 6.2 mi SSW 17.3 mph - N/A   Mostly Cloudy
3:00 AM 69 °F 65 °F 83% 29.96 in 16 mi SSW 19.6 mph - -   Mostly Cloudy
3:00 AM 68.0 °F 64.4 °F 88% 29.95 in 6.2 mi SSW 19.6 mph - N/A   Mostly Cloudy
3:30 AM 68.0 °F 64.4 °F 88% 29.95 in 6.2 mi SSW 17.3 mph - N/A   Mostly Cloudy
4:00 AM 69.8 °F 64.4 °F 83% 29.95 in 6.2 mi SSW 18.4 mph - N/A Rain Light Rain Showers
4:30 AM 69.8 °F 64.4 °F 83% 29.95 in 6.2 mi South 19.6 mph - N/A   Mostly Cloudy
5:00 AM 69 °F 65 °F 81% 29.95 in - South 19.6 mph - -  
5:00 AM 69.8 °F 64.4 °F 83% 29.95 in 6.2 mi South 19.6 mph - N/A   Mostly Cloudy
5:30 AM 69.8 °F 64.4 °F 83% 29.95 in 6.2 mi South 21.9 mph - N/A   Mostly Cloudy
6:00 AM 69 °F 64 °F 79% 29.96 in 11 mi SSW 21.9 mph - -   Partly Cloudy
6:00 AM 69.8 °F 64.4 °F 83% 29.95 in 6.2 mi SSW 21.9 mph - N/A   Mostly Cloudy
6:30 AM 69.8 °F 64.4 °F 83% 29.98 in 6.2 mi South 19.6 mph - N/A   Mostly Cloudy
7:00 AM 69.8 °F 64.4 °F 83% 29.98 in 6.2 mi SSW 17.3 mph - N/A   Mostly Cloudy
7:30 AM 69.8 °F 64.4 °F 83% 29.98 in 6.2 mi South 18.4 mph - N/A   Mostly Cloudy
8:00 AM 69 °F 64 °F 78% 30.00 in - South 18.4 mph - -  
8:00 AM 69.8 °F 64.4 °F 83% 29.98 in 6.2 mi South 18.4 mph - N/A   Mostly Cloudy
8:30 AM 69.8 °F 62.6 °F 78% 29.98 in 5.6 mi SSW 18.4 mph - N/A   Mostly Cloudy
9:00 AM 70 °F 64 °F 75% 30.01 in 6 mi SSW 16.1 mph - -   Mostly Cloudy
9:00 AM 69.8 °F 64.4 °F 83% 30.01 in 5.6 mi SSW 16.1 mph - N/A   Mostly Cloudy
9:30 AM 69.8 °F 64.4 °F 83% 30.01 in 6.2 mi South 20.7 mph - N/A   Mostly Cloudy
10:00 AM 69.8 °F 64.4 °F 83% 30.01 in 6.2 mi SSW 23.0 mph - N/A   Mostly Cloudy
10:30 AM 69.8 °F 64.4 °F 83% 30.04 in 6.2 mi South 20.7 mph - N/A   Mostly Cloudy
11:00 AM 71 °F 64 °F 73% 30.04 in - South 19.6 mph - -  
11:00 AM 71.6 °F 64.4 °F 78% 30.04 in 6.2 mi South 19.6 mph - N/A   Mostly Cloudy
11:30 AM 71.6 °F 62.6 °F 73% 30.04 in 6.2 mi South 20.7 mph - N/A   Mostly Cloudy
12:00 PM 71 °F 63 °F 70% 30.03 in 12 mi South 20.7 mph - -   Haze
12:00 PM 71.6 °F 62.6 °F 73% 30.01 in 6.2 mi South 20.7 mph - N/A   Mostly Cloudy
12:30 PM 69.8 °F 64.4 °F 83% 30.01 in 5.6 mi South 19.6 mph - N/A Rain Light Rain
1:00 PM 71.6 °F 62.6 °F 73% 30.01 in 5.6 mi South 19.6 mph - N/A   Light Drizzle
1:30 PM 71.6 °F 62.6 °F 73% 30.01 in 6.2 mi South 19.6 mph - N/A   Mostly Cloudy
2:00 PM 72 °F 63 °F 65% 30.02 in - South 19.6 mph - -  
2:00 PM 71.6 °F 62.6 °F 73% 30.01 in 6.2 mi South 19.6 mph - N/A   Mostly Cloudy
2:30 PM 71.6 °F 62.6 °F 73% 30.01 in 6.2 mi South 19.6 mph - N/A   Mostly Cloudy
3:00 PM 72 °F 63 °F 66% 30.00 in 9 mi South 19.6 mph - -   Haze
3:00 PM 71.6 °F 62.6 °F 73% 29.98 in 6.2 mi South 19.6 mph - N/A   Mostly Cloudy
3:28 PM 71.6 °F 62.6 °F 73% 29.98 in 6.2 mi South 19.6 mph 31.1 mph N/A   Mostly Cloudy
3:30 PM 71.6 °F 62.6 °F 73% 29.98 in 6.2 mi South 19.6 mph 31.1 mph N/A   Mostly Cloudy
4:00 PM 71.6 °F 64.4 °F 78% 29.98 in 6.2 mi South 18.4 mph - N/A   Mostly Cloudy
4:30 PM 71.6 °F 62.6 °F 73% 29.98 in 6.2 mi South 19.6 mph - N/A   Scattered Clouds
5:00 PM 72 °F 63 °F 65% 29.99 in - South 18.4 mph - -  
5:00 PM 71.6 °F 62.6 °F 73% 29.98 in 6.2 mi South 18.4 mph - N/A   Partly Cloudy
5:30 PM 71.6 °F 64.4 °F 78% 29.98 in 6.2 mi South 15.0 mph - N/A   Partly Cloudy
6:00 PM 72 °F 65 °F 73% 29.99 in 12 mi South 16.1 mph - -   Partly Cloudy
6:00 PM 71.6 °F 64.4 °F 78% 29.98 in 6.2 mi South 16.1 mph - N/A   Scattered Clouds
6:30 PM 71.6 °F 64.4 °F 78% 29.98 in 6.2 mi South 12.7 mph - N/A   Mostly Cloudy
7:00 PM 71.6 °F 64.4 °F 78% 30.01 in 6.2 mi South 13.8 mph - N/A   Mostly Cloudy
7:30 PM 71.6 °F 64.4 °F 78% 30.01 in 6.2 mi SSW 10.4 mph - N/A   Mostly Cloudy
8:00 PM 71 °F 65 °F 74% 30.03 in - South 10.4 mph - -  
8:00 PM 71.6 °F 64.4 °F 78% 30.01 in 6.2 mi South 10.4 mph - N/A   Mostly Cloudy
8:30 PM 71.6 °F 64.4 °F 78% 30.01 in 6.2 mi SSW 8.1 mph - N/A   Mostly Cloudy
9:00 PM 71 °F 66 °F 79% 30.04 in 11 mi South 9.2 mph - -   Haze
9:00 PM 71.6 °F 66.2 °F 83% 30.04 in 6.2 mi South 9.2 mph - N/A   Mostly Cloudy
9:30 PM 71.6 °F 64.4 °F 78% 30.04 in 6.2 mi SSE 8.1 mph - N/A   Mostly Cloudy
10:00 PM 73.4 °F 62.6 °F 69% 30.04 in 6.2 mi SE 6.9 mph - N/A   Mostly Cloudy
10:30 PM 71.6 °F 62.6 °F 73% 30.04 in 6.2 mi SSE 6.9 mph - N/A Rain Light Rain
11:00 PM 71 °F 63 °F 68% 30.04 in - SSE 6.9 mph - -  
11:00 PM 71.6 °F 62.6 °F 73% 30.04 in 6.2 mi SSE 6.9 mph - N/A   Mostly Cloudy
11:30 PM 71.6 °F 62.6 °F 73% 30.04 in 6.2 mi SE 8.1 mph - N/A   Mostly Cloudy